Tracking 19854 objects as of 21-Sep-2019
HD Live streaming from Space Station
objects crossing your sky now

ARIANE 42L+3 R/B

Track ARIANE 42L+3 R/B now!


NORAD ID: 23671
Int'l Code: 1995-049B
Perigee: 406.8 km
Apogee: 35,779.1 km
Inclination: 7.8 °
Period: 634.7 minutes
Semi major axis: 24463 km
RCS: 18.3882 m2 (large)
Launch date: September 24, 1995
Source: France (FR)
Launch site: FRENCH GUIANA (FRGUI)

Note: This is a ROCKET BODY
aabbcc
Your satellite tracking list
Your tracking list is empty




NASA's NSSDC Master Catalog

Two Line Element Set (TLE):
1 23671U 95049B   19263.28791748 -.00000090  00000-0 -20831-3 0  9991
2 23671   7.7631 333.6838 7229481 107.7514 337.2908  2.26889219196215
Source of the keplerian elements: AFSPC